Find Local Weather

World > North America > United States > New York

New York, New York Regional Weather

Lat: 40.71N, Lon: 74.01W
Wx Zone: NYZ072
Feedback
Expires:201812151200;;827579
ASUS41 KOKX 151114
RWROKX

Regional Weather Roundup
National Weather Service New York NY
600 AM EST SAT DEC 15 2018

Note: "FAIR" indicates few or no clouds below 12,000 feet with no
significant weather and/or obstructions to visibility.


NYZ071-072-176-178-NJZ106-104-151200-
New York City Metro Area
  
CITY           SKY/WX    TMP DP  RH WIND       PRES   REMARKS
Central Park   CLOUDY    49  47  93 MISG      30.20S FOG              
Bronx Lehman C   N/A     45  45 100 NE5         N/A                   
LaGuardia Arpt FOG       46  44  93 NE6       30.18R VSB 1/2          
Queens College   N/A     48  46  93 N6          N/A                   
Kennedy Intl   LGT RAIN  49  49 100 NE3       30.18S FOG              
Breezy Point     N/A     46 N/A N/A N6          N/A                   
Brooklyn Coll    N/A     50  48  93 N3          N/A                   
Staten Island    N/A     48  48 100 NE2         N/A                   
Newark/Liberty CLOUDY    48  48 100 N6        30.18R                  
Teterboro      CLOUDY    46  46 100 N5        30.18R FOG              
$$
 

SKY/WX - Weather  TMP - Temperature  DP - Dew Point  RH - Relative Humidity
WIND - Wind Direction/Speed PRES - Barometric Pressure